Location: Dead Woman Crossing
(43.5369°N, 106.3228°W)
Time: 08:21:43
(UTC+00:00)

NANOSAT C BR1 - Pass Details

Date: 07 July 2022
Orbit: 584 x 599 km, 98.0° (Epoch: 09 August)

Event Time Altitude Azimuth Distance (km) Brightness Sun altitude
Rises 10:06:33 0° 1° (N) 2,853 ? -12.5°
Reaches altitude 10° 10:08:57 10° 350° (N) 1,948 ? -12.2°
Maximum altitude 10:12:30 27° 292° (WNW) 1,171 ? -11.8°
Enters shadow 10:15:09 15° 243° (WSW) 1,642 ? -11.5°
